SITE: BDASe,YEAR: 2000,,,,,
Date,Time,pzhd (cm),DWT (cm),WT elev (m),,Notes
03/28/00,11:00,165.5,175.5,1371.725,,Depth to water table:
03/28/00,11:30,165.5,175.5,1371.725,,DWT = SCL - CH - h
03/28/00,12:00,165.5,175.5,1371.725,,where
03/28/00,12:30,165.5,175.5,1371.725,,SCL = sensor cable length = 500.0 cm
03/28/00,1:00,165.5,175.5,1371.725,,CH = casing height of well = 159.0 cm
03/28/00,1:30,165.5,175.5,1371.725,,h = height of water above sensor (from pzhd cm column)
03/28/00,2:00,165.5,175.5,1371.725,,
03/28/00,2:30,165.3,175.7,1371.723,,WT elevation:
03/28/00,3:00,165.2,175.8,1371.722,,Sensor elev = 1370.070 m asl
03/28/00,3:30,165.1,175.9,1371.721,,WT elev = sensor elev + h (from pzhd column)
03/28/00,4:00,165.1,175.9,1371.721,,
03/28/00,4:30,164.9,176.1,1371.719,,
03/28/00,5:00,164.8,176.2,1371.718,,Dates w/missing data (#0.5 hr data points): none.
03/28/00,5:30,164.7,176.3,1371.717,,
03/28/00,6:00,164.5,176.5,1371.715,,
03/28/00,6:30,164.5,176.6,1371.715,,
03/28/00,7:00,164.3,176.7,1371.713,,
03/28/00,7:30,164.0,177.0,1371.710,,
03/28/00,8:00,163.9,177.1,1371.709,,
03/28/00,8:30,163.7,177.3,1371.707,,
03/28/00,9:00,163.6,177.4,1371.706,,
03/28/00,9:30,163.5,177.5,1371.705,,
03/28/00,10:00,163.5,177.5,1371.705,,
03/28/00,10:30,163.4,177.6,1371.704,,
03/28/00,11:00,163.3,177.7,1371.703,,
03/28/00,11:30,163.3,177.7,1371.703,,
03/29/00,12:00,163.3,177.7,1371.703,,
03/29/00,12:30,163.2,177.8,1371.702,,
03/29/00,1:00,163.1,177.9,1371.701,,
03/29/00,1:30,163.1,177.9,1371.701,,
03/29/00,2:00,163.1,177.9,1371.701,,
03/29/00,2:30,163.0,178.0,1371.700,,
03/29/00,3:00,162.9,178.1,1371.699,,
03/29/00,3:30,162.9,178.1,1371.699,,
03/29/00,4:00,162.8,178.2,1371.698,,
03/29/00,4:30,162.7,178.3,1371.697,,
03/29/00,5:00,162.6,178.4,1371.696,,
03/29/00,5:30,162.5,178.5,1371.695,,
03/29/00,6:00,162.4,178.6,1371.694,,
03/29/00,6:30,162.2,178.8,1371.692,,
03/29/00,7:00,162.1,178.9,1371.691,,
03/29/00,7:30,162.0,179.0,1371.690,,
03/29/00,8:00,162.0,179.0,1371.690,,
03/29/00,8:30,161.9,179.1,1371.689,,
03/29/00,9:00,161.9,179.1,1371.689,,
03/29/00,9:30,162.0,179.0,1371.690,,
03/29/00,10:00,161.9,179.1,1371.689,,
03/29/00,10:30,162.0,179.0,1371.690,,
03/29/00,11:00,161.9,179.1,1371.689,,
03/29/00,11:30,162.0,179.0,1371.690,,
03/29/00,12:00,161.9,179.1,1371.689,,
03/29/00,12:30,161.9,179.1,1371.689,,
03/29/00,1:00,161.8,179.2,1371.688,,
03/29/00,1:30,161.7,179.3,1371.687,,
03/29/00,2:00,161.7,179.3,1371.687,,
03/29/00,2:30,161.6,179.4,1371.686,,
03/29/00,3:00,161.6,179.4,1371.686,,
03/29/00,3:30,161.5,179.5,1371.685,,
03/29/00,4:00,161.5,179.5,1371.685,,
03/29/00,4:30,161.3,179.7,1371.683,,
03/29/00,5:00,161.2,179.8,1371.682,,
03/29/00,5:30,161.1,179.9,1371.681,,
03/29/00,6:00,160.9,180.1,1371.679,,
03/29/00,6:30,160.9,180.1,1371.679,,
03/29/00,7:00,160.8,180.2,1371.678,,
03/29/00,7:30,160.7,180.3,1371.677,,
03/29/00,8:00,160.6,180.4,1371.676,,
03/29/00,8:30,160.5,180.5,1371.675,,
03/29/00,9:00,160.3,180.7,1371.673,,
03/29/00,9:30,160.5,180.5,1371.675,,
03/29/00,10:00,160.4,180.6,1371.674,,
03/29/00,10:30,160.4,180.6,1371.674,,
03/29/00,11:00,160.4,180.6,1371.674,,
03/29/00,11:30,160.4,180.6,1371.674,,
03/30/00,12:00,160.5,180.5,1371.675,,
03/30/00,12:30,160.7,180.3,1371.677,,
03/30/00,1:00,160.7,180.3,1371.677,,
03/30/00,1:30,160.8,180.2,1371.678,,
03/30/00,2:00,160.8,180.2,1371.678,,
03/30/00,2:30,160.8,180.2,1371.678,,
03/30/00,3:00,160.9,180.1,1371.679,,
03/30/00,3:30,160.9,180.1,1371.679,,
03/30/00,4:00,160.8,180.2,1371.678,,
03/30/00,4:30,160.8,180.2,1371.678,,
03/30/00,5:00,160.8,180.2,1371.678,,
03/30/00,5:30,160.9,180.1,1371.679,,
03/30/00,6:00,160.8,180.2,1371.678,,
03/30/00,6:30,161.0,180.0,1371.680,,
03/30/00,7:00,160.9,180.1,1371.679,,
03/30/00,7:30,160.8,180.2,1371.678,,
03/30/00,8:00,160.9,180.1,1371.679,,
03/30/00,8:30,161.0,180.0,1371.680,,
03/30/00,9:00,161.0,180.0,1371.680,,
03/30/00,9:30,161.1,179.9,1371.681,,
03/30/00,10:00,161.2,179.8,1371.682,,
03/30/00,10:30,161.4,179.6,1371.684,,
03/30/00,11:00,161.4,179.6,1371.684,,
03/30/00,11:30,161.5,179.5,1371.685,,
03/30/00,12:00,161.6,179.4,1371.686,,
03/30/00,12:30,161.7,179.3,1371.687,,
03/30/00,1:00,161.8,179.2,1371.688,,
03/30/00,1:30,161.9,179.1,1371.689,,
03/30/00,2:00,162.0,179.0,1371.690,,
03/30/00,2:30,162.0,179.0,1371.690,,
03/30/00,3:00,162.2,178.8,1371.692,,
03/30/00,3:30,162.2,178.8,1371.692,,
03/30/00,4:00,162.2,178.8,1371.692,,
03/30/00,4:30,162.2,178.8,1371.692,,
03/30/00,5:00,162.2,178.8,1371.692,,
03/30/00,5:30,162.0,179.0,1371.690,,
03/30/00,6:00,162.0,179.0,1371.690,,
03/30/00,6:30,161.9,179.1,1371.689,,
03/30/00,7:00,161.9,179.1,1371.689,,
03/30/00,7:30,161.8,179.2,1371.688,,
03/30/00,8:00,161.7,179.3,1371.687,,
03/30/00,8:30,161.7,179.3,1371.687,,
03/30/00,9:00,161.7,179.3,1371.687,,
03/30/00,9:30,161.7,179.3,1371.687,,
03/30/00,10:00,161.7,179.3,1371.687,,
03/30/00,10:30,161.7,179.3,1371.687,,
03/30/00,11:00,161.7,179.3,1371.687,,
03/30/00,11:30,161.8,179.2,1371.688,,
03/31/00,12:00,161.9,179.1,1371.689,,
03/31/00,12:30,161.9,179.1,1371.689,,
03/31/00,1:00,162.0,179.0,1371.690,,
03/31/00,1:30,162.0,179.0,1371.690,,
03/31/00,2:00,162.0,179.0,1371.690,,
03/31/00,2:30,162.2,178.8,1371.692,,
03/31/00,3:00,162.2,178.8,1371.692,,
03/31/00,3:30,162.3,178.7,1371.693,,
03/31/00,4:00,162.2,178.8,1371.692,,
03/31/00,4:30,162.2,178.8,1371.692,,
03/31/00,5:00,162.1,178.9,1371.691,,
03/31/00,5:30,162.1,178.9,1371.691,,
03/31/00,6:00,162.2,178.9,1371.692,,
03/31/00,6:30,162.2,178.8,1371.692,,
03/31/00,7:00,162.1,178.9,1371.691,,
03/31/00,7:30,162.2,178.8,1371.692,,
03/31/00,8:00,162.1,178.9,1371.691,,
03/31/00,8:30,162.2,178.8,1371.692,,
03/31/00,9:00,162.2,178.8,1371.692,,
03/31/00,9:30,162.3,178.7,1371.693,,
03/31/00,10:00,162.3,178.7,1371.693,,
03/31/00,10:30,162.5,178.5,1371.695,,
03/31/00,11:00,162.6,178.4,1371.696,,
03/31/00,11:30,162.6,178.4,1371.696,,
03/31/00,12:00,162.6,178.4,1371.696,,
03/31/00,12:30,162.6,178.4,1371.696,,
03/31/00,1:00,162.6,178.4,1371.696,,
03/31/00,1:30,162.5,178.5,1371.695,,
03/31/00,2:00,162.5,178.5,1371.695,,
03/31/00,2:30,162.3,178.7,1371.693,,
03/31/00,3:00,162.5,178.5,1371.695,,
03/31/00,3:30,162.6,178.4,1371.696,,
03/31/00,4:00,162.7,178.3,1371.697,,
03/31/00,4:30,162.7,178.3,1371.697,,
03/31/00,5:00,162.6,178.4,1371.696,,
03/31/00,5:30,162.6,178.4,1371.696,,
03/31/00,6:00,162.5,178.5,1371.695,,
03/31/00,6:30,162.5,178.5,1371.695,,
03/31/00,7:00,162.4,178.6,1371.694,,
03/31/00,7:30,162.4,178.6,1371.694,,
03/31/00,8:00,162.3,178.7,1371.693,,
03/31/00,8:30,162.2,178.8,1371.692,,
03/31/00,9:00,162.2,178.8,1371.692,,
03/31/00,9:30,162.1,178.9,1371.691,,
03/31/00,10:00,162.3,178.7,1371.693,,
03/31/00,10:30,162.2,178.8,1371.692,,
03/31/00,11:00,162.0,179.0,1371.690,,
03/31/00,11:30,162.0,179.0,1371.690,,
04/01/00,12:00,162.2,178.8,1371.692,,
04/01/00,12:30,162.1,178.9,1371.691,,
04/01/00,1:00,162.2,178.8,1371.692,,
04/01/00,1:30,162.3,178.7,1371.693,,
04/01/00,2:00,162.4,178.6,1371.694,,
04/01/00,2:30,162.4,178.6,1371.694,,
04/01/00,3:00,162.4,178.6,1371.694,,
04/01/00,3:30,162.4,178.6,1371.694,,
04/01/00,4:00,162.6,178.4,1371.696,,
04/01/00,4:30,162.4,178.6,1371.694,,
04/01/00,5:00,162.3,178.7,1371.693,,
04/01/00,5:30,162.3,178.7,1371.693,,
04/01/00,6:00,162.3,178.7,1371.693,,
04/01/00,6:30,162.3,178.7,1371.693,,
04/01/00,7:00,162.2,178.8,1371.692,,
04/01/00,7:30,162.1,178.9,1371.691,,
04/01/00,8:00,162.1,178.9,1371.691,,
04/01/00,8:30,162.1,178.9,1371.691,,
04/01/00,9:00,162.1,178.9,1371.691,,
04/01/00,9:30,162.1,178.9,1371.691,,
04/01/00,10:00,162.1,178.9,1371.691,,
04/01/00,10:30,162.1,178.9,1371.691,,
04/01/00,11:00,162.3,178.7,1371.693,,
04/01/00,11:30,162.3,178.7,1371.693,,
04/01/00,12:00,162.3,178.7,1371.693,,
04/01/00,12:30,162.4,178.6,1371.694,,
04/01/00,1:00,162.4,178.6,1371.694,,
04/01/00,1:30,162.4,178.6,1371.694,,
04/01/00,2:00,162.3,178.7,1371.693,,
04/01/00,2:30,162.5,178.5,1371.695,,
04/01/00,3:00,162.4,178.6,1371.694,,
04/01/00,3:30,162.3,178.7,1371.693,,
04/01/00,4:00,162.1,178.9,1371.691,,
04/01/00,4:30,162.2,178.8,1371.692,,
04/01/00,5:00,162.2,178.8,1371.692,,
04/01/00,5:30,162.0,179.0,1371.690,,
04/01/00,6:00,161.9,179.1,1371.689,,
04/01/00,6:30,162.0,179.0,1371.690,,
04/01/00,7:00,162.1,178.9,1371.691,,
04/01/00,7:30,162.0,179.0,1371.690,,
04/01/00,8:00,162.1,178.9,1371.691,,
04/01/00,8:30,162.0,179.0,1371.690,,
04/01/00,9:00,161.8,179.2,1371.688,,
04/01/00,9:30,161.8,179.2,1371.688,,
04/01/00,10:00,161.8,179.2,1371.688,,
04/01/00,10:30,161.8,179.2,1371.688,,
04/01/00,11:00,161.8,179.2,1371.688,,
04/01/00,11:30,162.0,179.0,1371.690,,
04/02/00,12:00,162.0,179.0,1371.690,,
04/02/00,12:30,162.0,179.0,1371.690,,
04/02/00,1:00,162.0,179.0,1371.690,,
04/02/00,1:30,162.0,179.0,1371.690,,
04/02/00,2:00,162.2,178.8,1371.692,,
04/02/00,2:30,162.2,178.8,1371.692,,
04/02/00,3:00,162.1,178.9,1371.691,,
04/02/00,3:30,162.1,178.9,1371.691,,
04/02/00,4:00,162.3,178.7,1371.693,,
04/02/00,4:30,162.2,178.8,1371.692,,
04/02/00,5:00,162.1,178.9,1371.691,,
04/02/00,5:30,162.2,178.8,1371.692,,
04/02/00,6:00,162.1,178.9,1371.691,,
04/02/00,6:30,162.0,179.0,1371.690,,
04/02/00,7:00,162.1,178.9,1371.691,,
04/02/00,7:30,162.0,179.0,1371.690,,
04/02/00,8:00,162.0,179.0,1371.690,,
04/02/00,8:30,161.9,179.1,1371.689,,
04/02/00,9:00,161.9,179.1,1371.689,,
04/02/00,9:30,161.9,179.1,1371.689,,
04/02/00,10:00,162.1,178.9,1371.691,,
04/02/00,10:30,162.1,178.9,1371.691,,
04/02/00,11:00,162.3,178.7,1371.693,,
04/02/00,11:30,162.4,178.6,1371.694,,
04/02/00,12:00,162.6,178.4,1371.696,,
04/02/00,12:30,162.6,178.4,1371.696,,
04/02/00,1:00,162.6,178.4,1371.696,,
04/02/00,1:30,162.8,178.2,1371.698,,
04/02/00,2:00,162.9,178.1,1371.699,,
04/02/00,2:30,162.8,178.2,1371.698,,
04/02/00,3:00,162.9,178.1,1371.699,,
04/02/00,3:30,162.8,178.2,1371.698,,
04/02/00,4:00,162.8,178.2,1371.698,,
04/02/00,4:30,162.8,178.2,1371.698,,
04/02/00,5:00,162.7,178.3,1371.697,,
04/02/00,5:30,162.6,178.4,1371.696,,
04/02/00,6:00,162.5,178.5,1371.695,,
04/02/00,6:30,162.4,178.6,1371.694,,
04/02/00,7:00,162.4,178.6,1371.694,,
04/02/00,7:30,162.3,178.7,1371.693,,
04/02/00,8:00,162.3,178.7,1371.693,,
04/02/00,8:30,162.2,178.8,1371.692,,
04/02/00,9:00,162.1,178.9,1371.691,,
04/02/00,9:30,162.1,178.9,1371.691,,
04/02/00,10:00,162.2,178.8,1371.692,,
04/02/00,10:30,162.3,178.7,1371.693,,
04/02/00,11:00,162.4,178.6,1371.694,,
04/02/00,11:30,162.5,178.5,1371.695,,
04/03/00,12:00,162.7,178.3,1371.697,,
04/03/00,12:30,162.8,178.2,1371.698,,
04/03/00,1:00,163.0,178.0,1371.700,,
04/03/00,1:30,163.0,178.0,1371.700,,
04/03/00,2:00,163.1,177.9,1371.701,,
04/03/00,2:30,163.3,177.7,1371.703,,
04/03/00,3:00,163.7,177.3,1371.707,,
04/03/00,3:30,164.2,176.8,1371.712,,
04/03/00,4:00,164.7,176.3,1371.717,,
04/03/00,4:30,165.1,175.9,1371.721,,
04/03/00,5:00,165.7,175.3,1371.727,,
04/03/00,5:30,165.9,175.1,1371.729,,
04/03/00,6:00,166.1,174.9,1371.731,,
04/03/00,6:30,166.5,174.5,1371.735,,
04/03/00,7:00,166.5,174.5,1371.735,,
04/03/00,7:30,166.6,174.4,1371.736,,
04/03/00,8:00,166.8,174.2,1371.738,,
04/03/00,8:30,166.9,174.1,1371.739,,
04/03/00,9:00,167.0,174.0,1371.740,,
04/03/00,9:30,167.1,173.9,1371.741,,
04/03/00,10:00,167.3,173.7,1371.743,,
04/03/00,10:30,167.4,173.6,1371.744,,
04/03/00,11:00,167.5,173.5,1371.745,,
04/03/00,11:30,167.7,173.3,1371.747,,
04/03/00,12:00,167.8,173.2,1371.748,,
04/03/00,12:30,167.8,173.2,1371.748,,
04/03/00,1:00,168.0,173.0,1371.750,,
04/03/00,1:30,168.0,173.0,1371.750,,
04/03/00,2:00,168.1,172.9,1371.751,,
04/03/00,2:30,168.1,172.9,1371.751,,
04/03/00,3:00,168.1,172.9,1371.751,,
04/03/00,3:30,168.1,172.9,1371.751,,
04/03/00,4:00,168.3,172.7,1371.753,,
04/03/00,4:30,168.1,172.9,1371.751,,
04/03/00,5:00,168.1,172.9,1371.751,,
04/03/00,5:30,168.1,172.9,1371.751,,
04/03/00,6:00,168.0,173.0,1371.750,,
04/03/00,6:30,167.8,173.2,1371.748,,
04/03/00,7:00,167.7,173.3,1371.747,,
04/03/00,7:30,167.6,173.4,1371.746,,
04/03/00,8:00,167.4,173.6,1371.744,,
04/03/00,8:30,167.3,173.7,1371.743,,
04/03/00,9:00,167.2,173.8,1371.742,,
04/03/00,9:30,167.2,173.8,1371.742,,
04/03/00,10:00,167.1,173.9,1371.741,,
04/03/00,10:30,167.1,173.9,1371.741,,
04/03/00,11:00,167.1,173.9,1371.741,,
04/03/00,11:30,167.1,173.9,1371.741,,
04/04/00,12:00,167.0,174.0,1371.740,,
04/04/00,12:30,166.9,174.1,1371.739,,
04/04/00,1:00,166.9,174.1,1371.739,,
04/04/00,1:30,166.7,174.3,1371.737,,
04/04/00,2:00,166.7,174.3,1371.737,,
04/04/00,2:30,166.7,174.3,1371.737,,
04/04/00,3:00,166.5,174.5,1371.735,,
04/04/00,3:30,166.5,174.5,1371.735,,
04/04/00,4:00,166.3,174.7,1371.733,,
04/04/00,4:30,166.3,174.7,1371.733,,
04/04/00,5:00,166.2,174.8,1371.732,,
04/04/00,5:30,166.1,174.9,1371.731,,
04/04/00,6:00,165.9,175.1,1371.729,,
04/04/00,6:30,165.8,175.2,1371.728,,
04/04/00,7:00,165.8,175.2,1371.728,,
04/04/00,7:30,165.6,175.4,1371.726,,
04/04/00,8:00,165.6,175.4,1371.726,,
04/04/00,8:30,165.6,175.4,1371.726,,
04/04/00,9:00,165.5,175.5,1371.725,,
04/04/00,9:30,165.5,175.5,1371.725,,
04/04/00,10:00,165.5,175.5,1371.725,,
04/04/00,10:30,165.5,175.5,1371.725,,
04/04/00,11:00,165.5,175.5,1371.725,,
04/04/00,11:30,165.5,175.5,1371.725,,
04/04/00,12:00,165.7,175.3,1371.727,,
04/04/00,12:30,165.8,175.2,1371.728,,
04/04/00,1:00,165.8,175.2,1371.728,,
04/04/00,1:30,165.9,175.1,1371.729,,
04/04/00,2:00,166.0,175.0,1371.730,,
04/04/00,2:30,166.0,175.0,1371.730,,
04/04/00,3:00,166.1,174.9,1371.731,,
04/04/00,3:30,166.1,174.9,1371.731,,
04/04/00,4:00,166.1,174.9,1371.731,,
04/04/00,4:30,166.1,174.9,1371.731,,
04/04/00,5:00,166.2,174.8,1371.732,,
04/04/00,5:30,166.1,174.9,1371.731,,
04/04/00,6:00,166.1,174.9,1371.731,,
04/04/00,6:30,166.1,174.9,1371.731,,
04/04/00,7:00,166.0,175.0,1371.730,,
04/04/00,7:30,165.9,175.1,1371.729,,
04/04/00,8:00,165.7,175.3,1371.727,,
04/04/00,8:30,165.6,175.4,1371.726,,
04/04/00,9:00,165.4,175.6,1371.724,,
04/04/00,9:30,165.3,175.7,1371.723,,
04/04/00,10:00,165.1,175.9,1371.721,,
04/04/00,10:30,165.0,176.0,1371.720,,
04/04/00,11:00,165.0,176.0,1371.720,,
04/04/00,11:30,164.9,176.1,1371.719,,
04/05/00,12:00,164.9,176.1,1371.719,,
04/05/00,12:30,164.9,176.1,1371.719,,
04/05/00,1:00,164.9,176.1,1371.719,,
04/05/00,1:30,164.8,176.2,1371.718,,
04/05/00,2:00,164.9,176.1,1371.719,,
04/05/00,2:30,164.8,176.2,1371.718,,
04/05/00,3:00,164.7,176.3,1371.717,,
04/05/00,3:30,164.7,176.3,1371.717,,
04/05/00,4:00,164.8,176.2,1371.718,,
04/05/00,4:30,164.8,176.2,1371.718,,
04/05/00,5:00,164.7,176.3,1371.717,,
04/05/00,5:30,164.7,176.3,1371.717,,
04/05/00,6:00,164.6,176.4,1371.716,,
04/05/00,6:30,164.5,176.5,1371.715,,
04/05/00,7:00,164.5,176.5,1371.715,,
04/05/00,7:30,164.4,176.6,1371.714,,
04/05/00,8:00,164.4,176.6,1371.714,,
04/05/00,8:30,164.4,176.6,1371.714,,
04/05/00,9:00,164.4,176.6,1371.714,,
04/05/00,9:30,164.3,176.7,1371.713,,
04/05/00,10:00,164.3,176.7,1371.713,,
04/05/00,10:30,164.3,176.7,1371.713,,
04/05/00,11:00,164.3,176.7,1371.713,,
04/05/00,11:30,164.3,176.7,1371.713,,
04/05/00,12:00,164.4,176.6,1371.714,,
04/05/00,12:30,164.4,176.6,1371.714,,
04/05/00,1:00,164.4,176.6,1371.714,,
04/05/00,1:30,164.4,176.6,1371.714,,
04/05/00,2:00,164.4,176.6,1371.714,,
04/05/00,2:30,164.4,176.6,1371.714,,
04/05/00,3:00,164.4,176.6,1371.714,,
04/05/00,3:30,164.3,176.7,1371.713,,
04/05/00,4:00,164.3,176.7,1371.713,,
04/05/00,4:30,164.2,176.8,1371.712,,
04/05/00,5:00,164.2,176.8,1371.712,,
04/05/00,5:30,164.0,177.0,1371.710,,
04/05/00,6:00,164.0,177.0,1371.710,,
04/05/00,6:30,163.9,177.1,1371.709,,
04/05/00,7:00,163.8,177.2,1371.708,,
04/05/00,7:30,163.6,177.4,1371.706,,
04/05/00,8:00,163.5,177.5,1371.705,,
04/05/00,8:30,163.3,177.7,1371.703,,
04/05/00,9:00,163.1,177.9,1371.701,,
04/05/00,9:30,163.0,178.0,1371.700,,
04/05/00,10:00,162.8,178.2,1371.698,,
04/05/00,10:30,162.8,178.3,1371.698,,
04/05/00,11:00,162.7,178.3,1371.697,,
04/05/00,11:30,162.7,178.3,1371.697,,
04/06/00,12:00,162.6,178.4,1371.696,,
04/06/00,12:30,162.5,178.5,1371.695,,
04/06/00,1:00,162.5,178.5,1371.695,,
04/06/00,1:30,162.4,178.6,1371.694,,
04/06/00,2:00,162.4,178.6,1371.694,,
04/06/00,2:30,162.3,178.7,1371.693,,
04/06/00,3:00,162.4,178.6,1371.694,,
04/06/00,3:30,162.4,178.6,1371.694,,
04/06/00,4:00,162.3,178.7,1371.693,,
04/06/00,4:30,162.2,178.8,1371.692,,
04/06/00,5:00,162.2,178.8,1371.692,,
04/06/00,5:30,162.1,178.9,1371.691,,
04/06/00,6:00,162.0,179.0,1371.690,,
04/06/00,6:30,161.9,179.1,1371.689,,
04/06/00,7:00,161.9,179.1,1371.689,,
04/06/00,7:30,161.8,179.2,1371.688,,
04/06/00,8:00,161.7,179.3,1371.687,,
04/06/00,8:30,161.7,179.3,1371.687,,
04/06/00,9:00,161.8,179.2,1371.688,,
04/06/00,9:30,161.8,179.2,1371.688,,
04/06/00,10:00,161.7,179.3,1371.687,,
04/06/00,10:30,161.7,179.3,1371.687,,
04/06/00,11:00,161.7,179.3,1371.687,,
04/06/00,11:30,161.7,179.3,1371.687,,
04/06/00,12:00,161.7,179.3,1371.687,,
04/06/00,12:30,161.7,179.3,1371.687,,
04/06/00,1:00,161.7,179.3,1371.687,,
04/06/00,1:30,161.9,179.1,1371.689,,
04/06/00,2:00,161.9,179.1,1371.689,,
04/06/00,2:30,162.0,179.0,1371.690,,
04/06/00,3:00,162.0,179.0,1371.690,,
04/06/00,3:30,162.0,179.0,1371.690,,
04/06/00,4:00,162.0,179.0,1371.690,,
04/06/00,4:30,162.0,179.0,1371.690,,
04/06/00,5:00,162.0,179.0,1371.690,,
04/06/00,5:30,161.9,179.1,1371.689,,
04/06/00,6:00,161.8,179.2,1371.688,,
04/06/00,6:30,161.8,179.2,1371.688,,
04/06/00,7:00,161.5,179.5,1371.685,,
04/06/00,7:30,161.4,179.6,1371.684,,
04/06/00,8:00,161.1,179.9,1371.681,,
04/06/00,8:30,161.0,180.0,1371.680,,
04/06/00,9:00,160.7,180.3,1371.677,,
04/06/00,9:30,160.6,180.4,1371.676,,
04/06/00,10:00,160.5,180.5,1371.675,,
04/06/00,10:30,160.2,180.8,1371.672,,
04/06/00,11:00,160.1,180.9,1371.671,,
04/06/00,11:30,160.3,180.7,1371.673,,
04/07/00,12:00,160.1,180.9,1371.671,,
04/07/00,12:30,160.0,181.0,1371.670,,
04/07/00,1:00,160.0,181.0,1371.670,,
04/07/00,1:30,159.9,181.1,1371.669,,
04/07/00,2:00,159.8,181.2,1371.668,,
04/07/00,2:30,159.8,181.2,1371.668,,
04/07/00,3:00,159.7,181.3,1371.667,,
04/07/00,3:30,159.6,181.4,1371.666,,
04/07/00,4:00,159.8,181.3,1371.668,,
04/07/00,4:30,159.7,181.3,1371.667,,
04/07/00,5:00,159.6,181.4,1371.666,,
04/07/00,5:30,159.5,181.5,1371.665,,
04/07/00,6:00,159.5,181.5,1371.665,,
04/07/00,6:30,159.3,181.7,1371.663,,
04/07/00,7:00,159.3,181.7,1371.663,,
04/07/00,7:30,159.2,181.8,1371.662,,
04/07/00,8:00,159.1,181.9,1371.661,,
04/07/00,8:30,159.0,182.0,1371.660,,
04/07/00,9:00,159.0,182.0,1371.660,,
04/07/00,9:30,159.0,182.0,1371.660,,
04/07/00,10:00,158.9,182.1,1371.659,,
04/07/00,10:30,158.9,182.1,1371.659,,
04/07/00,11:00,158.8,182.2,1371.658,,
04/07/00,11:30,158.9,182.1,1371.659,,
04/07/00,12:00,158.8,182.2,1371.658,,
04/07/00,12:30,158.8,182.2,1371.658,,
04/07/00,1:00,158.9,182.1,1371.659,,
04/07/00,1:30,158.8,182.2,1371.658,,
04/07/00,2:00,158.8,182.2,1371.658,,
04/07/00,2:30,158.7,182.3,1371.657,,
04/07/00,3:00,158.7,182.3,1371.657,,
04/07/00,3:30,158.6,182.4,1371.656,,
04/07/00,4:00,158.7,182.3,1371.657,,
04/07/00,4:30,158.6,182.4,1371.656,,
04/07/00,5:00,158.6,182.4,1371.656,,
04/07/00,5:30,158.4,182.6,1371.654,,
04/07/00,6:00,158.3,182.7,1371.653,,
04/07/00,6:30,158.3,182.7,1371.653,,
04/07/00,7:00,158.2,182.8,1371.652,,
04/07/00,7:30,158.1,182.9,1371.651,,
04/07/00,8:00,158.0,183.0,1371.650,,
04/07/00,8:30,157.8,183.2,1371.648,,
04/07/00,9:00,157.5,183.5,1371.645,,
04/07/00,9:30,157.4,183.6,1371.644,,
04/07/00,10:00,157.2,183.8,1371.642,,
04/07/00,10:30,157.1,183.9,1371.641,,
04/07/00,11:00,157.0,184.0,1371.640,,
04/07/00,11:30,156.8,184.2,1371.638,,
04/08/00,12:00,156.8,184.2,1371.638,,
04/08/00,12:30,156.7,184.3,1371.637,,
04/08/00,1:00,156.6,184.4,1371.636,,
04/08/00,1:30,156.5,184.5,1371.635,,
04/08/00,2:00,156.5,184.5,1371.635,,
04/08/00,2:30,156.4,184.6,1371.634,,
04/08/00,3:00,156.3,184.7,1371.633,,
04/08/00,3:30,156.3,184.7,1371.633,,
04/08/00,4:00,156.1,184.9,1371.631,,
04/08/00,4:30,156.1,184.9,1371.631,,
04/08/00,5:00,155.9,185.1,1371.629,,
04/08/00,5:30,155.9,185.1,1371.629,,
04/08/00,6:00,155.9,185.1,1371.629,,
04/08/00,6:30,155.8,185.2,1371.628,,
04/08/00,7:00,155.7,185.3,1371.627,,
04/08/00,7:30,155.6,185.4,1371.626,,
04/08/00,8:00,155.5,185.5,1371.625,,
04/08/00,8:30,155.5,185.5,1371.625,,
04/08/00,9:00,155.4,185.6,1371.624,,
04/08/00,9:30,155.4,185.6,1371.624,,
04/08/00,10:00,155.5,185.5,1371.625,,
04/08/00,10:30,155.5,185.5,1371.625,,
04/08/00,11:00,155.5,185.5,1371.625,,
04/08/00,11:30,155.6,185.4,1371.626,,
04/08/00,12:00,155.6,185.4,1371.626,,
04/08/00,12:30,155.7,185.3,1371.627,,
04/08/00,1:00,155.8,185.2,1371.628,,
04/08/00,1:30,155.9,185.1,1371.629,,
04/08/00,2:00,155.9,185.1,1371.629,,
04/08/00,2:30,155.9,185.1,1371.629,,
04/08/00,3:00,156.0,185.0,1371.630,,
04/08/00,3:30,156.1,184.9,1371.631,,
04/08/00,4:00,156.1,184.9,1371.631,,
04/08/00,4:30,156.1,184.9,1371.631,,
04/08/00,5:00,156.1,184.9,1371.631,,
04/08/00,5:30,156.1,184.9,1371.631,,
04/08/00,6:00,155.9,185.1,1371.629,,
04/08/00,6:30,155.9,185.1,1371.629,,
04/08/00,7:00,155.9,185.1,1371.629,,
04/08/00,7:30,155.8,185.2,1371.628,,
04/08/00,8:00,155.7,185.3,1371.627,,
04/08/00,8:30,155.7,185.3,1371.627,,
04/08/00,9:00,155.6,185.4,1371.626,,
04/08/00,9:30,155.5,185.5,1371.625,,
04/08/00,10:00,155.4,185.6,1371.624,,
04/08/00,10:30,155.4,185.6,1371.624,,
04/08/00,11:00,155.4,185.6,1371.624,,
04/08/00,11:30,155.4,185.6,1371.624,,
04/09/00,12:00,155.3,185.7,1371.623,,
04/09/00,12:30,155.4,185.6,1371.624,,
04/09/00,1:00,155.4,185.6,1371.624,,
04/09/00,1:30,155.4,185.6,1371.624,,
04/09/00,2:00,155.3,185.7,1371.623,,
04/09/00,2:30,155.2,185.8,1371.622,,
04/09/00,3:00,155.3,185.7,1371.623,,
04/09/00,3:30,155.2,185.8,1371.622,,
04/09/00,4:00,155.2,185.8,1371.622,,
04/09/00,4:30,155.2,185.8,1371.622,,
04/09/00,5:00,155.2,185.8,1371.622,,
04/09/00,5:30,155.2,185.8,1371.622,,
04/09/00,6:00,155.0,186.0,1371.620,,
04/09/00,6:30,155.0,186.0,1371.620,,
04/09/00,7:00,155.0,186.0,1371.620,,
04/09/00,7:30,154.8,186.2,1371.618,,
04/09/00,8:00,154.8,186.2,1371.618,,
04/09/00,8:30,154.8,186.2,1371.618,,
04/09/00,9:00,154.7,186.3,1371.617,,
04/09/00,9:30,154.7,186.3,1371.617,,
04/09/00,10:00,154.7,186.3,1371.617,,
04/09/00,10:30,154.6,186.4,1371.616,,
04/09/00,11:00,154.7,186.3,1371.617,,
04/09/00,11:30,154.7,186.3,1371.617,,
04/09/00,12:00,154.8,186.2,1371.618,,
04/09/00,12:30,155.0,186.0,1371.620,,
04/09/00,1:00,155.0,186.0,1371.620,,
04/09/00,1:30,155.0,186.0,1371.620,,
04/09/00,2:00,155.0,186.0,1371.620,,
04/09/00,2:30,155.0,186.0,1371.620,,
04/09/00,3:00,155.1,185.9,1371.621,,
04/09/00,3:30,155.2,185.8,1371.622,,
04/09/00,4:00,155.2,185.8,1371.622,,
04/09/00,4:30,155.1,185.9,1371.621,,
04/09/00,5:00,155.1,185.9,1371.621,,
04/09/00,5:30,155.1,185.9,1371.621,,
04/09/00,6:00,155.1,185.9,1371.621,,
04/09/00,6:30,155.0,186.0,1371.620,,
04/09/00,7:00,154.9,186.1,1371.619,,
04/09/00,7:30,154.9,186.1,1371.619,,
04/09/00,8:00,154.8,186.2,1371.618,,
04/09/00,8:30,154.7,186.3,1371.617,,
04/09/00,9:00,154.5,186.5,1371.615,,
04/09/00,9:30,154.4,186.6,1371.614,,
04/09/00,10:00,154.4,186.6,1371.614,,
04/09/00,10:30,154.4,186.6,1371.614,,
04/09/00,11:00,154.4,186.6,1371.614,,
04/09/00,11:30,154.3,186.7,1371.613,,
04/10/00,12:00,154.3,186.7,1371.613,,
04/10/00,12:30,154.3,186.7,1371.613,,
04/10/00,1:00,154.2,186.8,1371.612,,
04/10/00,1:30,154.2,186.8,1371.612,,
04/10/00,2:00,154.1,186.9,1371.611,,
04/10/00,2:30,154.2,186.8,1371.612,,
04/10/00,3:00,154.1,186.9,1371.611,,
04/10/00,3:30,154.1,186.9,1371.611,,
04/10/00,4:00,154.0,187.0,1371.610,,
04/10/00,4:30,154.0,187.0,1371.610,,
04/10/00,5:00,154.0,187.0,1371.610,,
04/10/00,5:30,153.9,187.1,1371.609,,
04/10/00,6:00,154.0,187.1,1371.610,,
04/10/00,6:30,153.8,187.2,1371.608,,
04/10/00,7:00,154.0,187.0,1371.610,,